星链-1032 (STARLINK-1032 )

导读 | 豆包AI

STARLINK-1032是美国太空探索技术公司(SpaceX)于2019年11月11日发射的星链计划卫星,星链计划旨在构建全球卫星互联网星座,为全球提供高速互联网接入服务,该卫星入轨后成为星链低轨星座的组成部分,服务于星座组网覆盖建设,推进全球互联网络布局。

Basic Information
目录编号:
44737
目录名称:
STARLINK-1032
国际标识:
2019-074AA
轨道中心:
EARTH
卫星名称:
星链-1032
卫星全名:
星链-1032 (STARLINK-1032 )
卫星状态:
已陨落 最后检测时间 2025-03-26
发射日期:
2019-11-11 UTC
国别 :
美国 (US)
星等 :
--
Orbit Information
数据来源 国际轨道数据
星历时间: 2025-03-26T01:09:25+0800
轨道信息已过期353天
半长轴: 6548.977km
偏心率: 0.0004997
轨道倾角: 53.030°
近地点辐角 292.581°
升交点赤经 272.034°
平近点角 165.394°
近地点: 167.569km
远地点: 174.115km
周期: 87.906分钟
每日圈数: 16.381082
Detailed Information
固有亮度:
5
最大亮度:
2.5
卫星平台:
Starlink V1.0
覆盖范围:
全球
运营商:
太空探索技术公司
运营商所在国:
美国
制造商(研发单位):
太空探索技术公司
制造商所在国:
美国
使用方式:
暂无
Satellite Introduction
星链(Starlink)计划是由太空探索技术公司(SpaceX)提出的一个巨型低轨卫星互联网星座项目,计划在2019年至2024年间在太空搭建由约1.2万颗卫星组成的“星链”网络,其中1584颗将部署在地球上空550千米处的近地轨道,并从2020年开始工作。该卫星仍在工作。